Flag for Germany Weather past 2 weeks in Meppen, Lower Saxony, Germany

Now
52 °F

Fog.


Feels Like: 49 °F
Forecast: 61 / 72 °F
Wind: 7 mph from Northeast

Location: Meppen

Current Time: Sep 19, 2014 at 8:30:18 AM

Latest Report: Sep 19, 2014 at 7:00 AM


Visibility: 2 mi

Pressure: 29.87 "Hg

Humidity: 95%

Dew point: 51 °F

Location of MeppenLocation

Historic Weather in Meppen — Graph

°F

Meppen temperature yesterday

Maximum temperature yesterday: 78 °F (at 4:00 PM)
Minimum temperature yesterday: 55 °F (at 7:00 AM)
Average temperature yesterday: 65 °F

Past Weeks' High & Low Weather Summary

 TemperatureHumidityPressure
High78 °F (Sep 18, 4:00 PM)96% (Sep 15, 6:00 AM)30.28 "Hg (Sep 15, 6:00 AM)
Low47 °F (Sep 15, 7:00 AM)45% (Sep 18, 4:00 PM)29.85 "Hg (Sep 18, 7:00 PM)
Average62 °F79%30.05 "Hg
* Reported Sep 4 7:00 AM — Sep 19 7:00 AM, Meppen, Weather by CustomWeather, © 2014

Note: Actual official high and low records may vary slightly from our data, if they occured in-between our weather recording intervals... More about our weather records

Advertising

Meppen weather history for previous 24 hours

 ConditionsComfort  
Time TempWeatherWind HumidityBarometerVisibility
7:00 AM
Sep 19
52 °FFog.2 mph95%29.87 "Hg0 mi
6:00 AM52 °FCool.2 mph95%29.87 "Hg0 mi
4:00 AM53 °FCool.1 mph95%29.87 "Hg0 mi
3:00 AM54 °FCool.2 mph95%29.87 "Hg0 mi
2:00 AM54 °FCool.1 mph95%29.88 "Hg1 mi
1:00 AM56 °FCool.1 mph94%29.89 "Hg0 mi
12:00 AM58 °FCool.No wind94%29.88 "Hg0 mi
10:00 PM
Sep 18
61 °FCool.1 mph90%29.88 "Hg4 mi
9:00 PM65 °FMild.1 mph80%29.87 "Hg4 mi
8:00 PM70 °FMild.2 mph66%29.86 "Hg4 mi
7:00 PM75 °FMild.2 mph56%29.85 "Hg4 mi
6:00 PM77 °FWarm.2 mph50%29.85 "Hg4 mi
4:00 PM78 °FWarm.3 mph45%29.85 "Hg4 mi
3:00 PM77 °FMild.2 mph47%29.86 "Hg4 mi
2:00 PM76 °FPassing clouds.3 mph49%29.86 "Hg17 mi
1:00 PM74 °FPassing clouds.3 mph58%29.87 "Hg19 mi
12:00 PM72 °FPassing clouds.2 mph61%29.88 "Hg11 mi
10:00 AM64 °FSunny.2 mph78%29.90 "Hg7 mi
9:00 AM59 °FFog.1 mph86%29.89 "Hg4 mi
8:00 AM55 °FFog.2 mph93%29.88 "Hg3 mi
Weather by CustomWeather, © 2014

See weather overviewHow to use our weather pages